User: anonymous   Login
Location: Columbia
(38.9520°N, 92.3340°W)
Time: 12:00:25
(UTC-05:00)
Language:

Cosmos 1603 - Orbit

View from above orbital plane
View from above orbital plane
View from above satellite
View from above satellite

Ground track
Ground track

The orbit data is extracted from the following two-line orbital elements,

1 15333U 84106A   16180.22393643  .00000063  00000-0  57748-4 0  9996
2 15333  71.0259 113.5507 0018725  20.7820 339.4059 14.14030595638221
Epoch (UTC): 28 June 2016 05:22:28
Eccentricity: 0.0018725
inclination: 71.0259°
perigee height: 832 km
apogee height: 859 km
right ascension of ascending node: 113.5507°
argument of perigee: 20.7820°
revolutions per day: 14.14030595
mean anomaly at epoch: 339.4059°
orbit number at epoch: 63822

The dashed part of the orbit path shows where the satellite is in the earth's shadow,  

DLR